Flag for U.S.A. Weather past 2 weeks in Spartanburg, South Carolina, U.S.A.

Now
73 °F

Mild.


Feels Like: 73 °F
Forecast: 67 / 88 °F
Wind: No wind

Location: Spartanburg Memorial

Current Time: Jun 30, 2015 at 10:13:04 PM

Latest Report: Jun 30, 2015 at 9:35 PM


Visibility: 10 mi

Pressure: 29.96 "Hg

Humidity: 83%

Dew point: 68 °F

Location of SpartanburgLocation

Historic Weather in Spartanburg — Graph

°F

Spartanburg temperature yesterday

Maximum temperature yesterday: 86 °F (at 2:55 PM)
Minimum temperature yesterday: 63 °F (at 5:55 AM)
Average temperature yesterday: 76 °F

Past Weeks' High & Low Weather Summary

 TemperatureHumidityPressure
High99 °F (Jun 18, 4:55 PM)100% (Jun 19, 12:15 AM)30.14 "Hg (Jun 19, 12:15 AM)
Low63 °F (Jun 29, 5:55 AM)30% (Jun 22, 4:35 PM)29.80 "Hg (Jun 27, 3:15 PM)
Average82 °F67%30.01 "Hg
* Reported Jun 15 8:15 PM — Jun 30 8:55 PM, Spartanburg, Weather by CustomWeather, © 2015

Note: Actual official high and low records may vary slightly from our data, if they occured in-between our weather recording intervals... More about our weather records

Advertising

Spartanburg weather history for previous 24 hours

 ConditionsComfort  
Time TempWeatherWind HumidityBarometerVisibility
8:55 PM
Tue, Jun 30
75 °FMild.No wind78%29.94 "Hg10 mi
8:35 PM75 °FMild.No wind78%29.93 "Hg10 mi
8:15 PM77 °FWarm.7 mph74%29.92 "Hg10 mi
7:55 PM77 °FWarm.7 mph74%29.91 "Hg10 mi
7:35 PM77 °FWarm.9 mph74%29.91 "Hg10 mi
7:15 PM77 °FWarm.8 mph74%29.91 "Hg10 mi
6:55 PM79 °FWarm.9 mph70%29.91 "Hg10 mi
6:35 PM79 °FWarm.9 mph70%29.92 "Hg10 mi
5:55 PM79 °FWarm.7 mph61%29.91 "Hg10 mi
5:35 PM81 °FWarm.9 mph58%29.91 "Hg10 mi
5:15 PM81 °FWarm.8 mph58%29.93 "Hg10 mi
4:55 PM81 °FWarm.8 mph62%29.94 "Hg10 mi
4:35 PM81 °FWarm.9 mph66%29.93 "Hg10 mi
4:15 PM79 °FWarm.8 mph74%29.92 "Hg10 mi
3:55 PM79 °FWarm.7 mph74%29.93 "Hg10 mi
3:35 PM77 °FLight rain. Cloudy.8 mph79%29.92 "Hg10 mi
3:15 PM82 °FRain. Cloudy.8 mph62%29.89 "Hg10 mi
2:55 PM86 °FWarm.12 mph49%29.91 "Hg10 mi
2:35 PM88 °FWarm.9 mph43%29.93 "Hg10 mi
2:15 PM91 °FHot.14 mph41%29.93 "Hg10 mi
1:55 PM91 °FHot.14 mph41%29.94 "Hg10 mi
12:55 PM90 °FHot.10 mph41%29.96 "Hg10 mi
12:35 PM90 °FHot.13 mph41%29.96 "Hg10 mi
11:55 AM88 °FWarm.7 mph46%29.95 "Hg10 mi
10:55 AM86 °FWarm.8 mph52%29.98 "Hg10 mi
10:35 AM84 °FWarm.6 mph51%29.98 "Hg10 mi
9:55 AM82 °FWarm.5 mph62%29.99 "Hg10 mi
8:55 AM79 °FWarm.6 mph65%29.99 "Hg10 mi
8:35 AM77 °FWarm.5 mph74%29.99 "Hg10 mi
7:55 AM73 °FMild.3 mph78%29.98 "Hg10 mi
7:35 AM72 °FMild.5 mph78%29.97 "Hg10 mi
7:15 AM72 °FMild.5 mph78%29.97 "Hg10 mi
6:55 AM72 °FMild.6 mph78%29.96 "Hg10 mi
6:35 AM72 °FMild.5 mph78%29.96 "Hg10 mi
6:15 AM72 °FMild.6 mph78%29.94 "Hg10 mi
5:55 AM72 °FMild.6 mph78%29.94 "Hg10 mi
5:35 AM72 °FMild.7 mph78%29.94 "Hg10 mi
5:15 AM72 °FMild.6 mph78%29.94 "Hg10 mi
4:55 AM72 °FMild.5 mph73%29.95 "Hg10 mi
4:35 AM72 °FMild.8 mph73%29.95 "Hg10 mi
4:15 AM72 °FMild.7 mph73%29.95 "Hg10 mi
3:55 AM72 °FMild.7 mph73%29.95 "Hg10 mi
3:35 AM73 °FMild.7 mph69%29.96 "Hg10 mi
3:15 AM73 °FMild.7 mph69%29.96 "Hg10 mi
2:55 AM72 °FMild.6 mph73%29.96 "Hg10 mi
2:35 AM73 °FMild.5 mph69%29.96 "Hg10 mi
2:15 AM73 °FMild.7 mph69%29.96 "Hg10 mi
1:55 AM73 °FMild.5 mph69%29.97 "Hg10 mi
1:35 AM72 °FMild.3 mph78%29.97 "Hg10 mi
1:15 AM72 °FMild.No wind78%29.98 "Hg10 mi
12:55 AM73 °FMild.3 mph74%29.98 "Hg10 mi
12:15 AM75 °FMild.5 mph65%29.98 "Hg10 mi
11:55 PM
Mon, Jun 29
75 °FMild.3 mph65%29.99 "Hg10 mi
11:35 PM75 °FMild.5 mph65%29.99 "Hg10 mi
11:15 PM77 °FWarm.No wind61%29.99 "Hg10 mi
10:55 PM77 °FWarm.No wind61%29.99 "Hg10 mi
10:35 PM77 °FWarm.No wind61%29.99 "Hg10 mi
10:15 PM77 °FWarm.No wind61%29.98 "Hg10 mi
Weather by CustomWeather, © 2015

See weather overviewHow to use our weather pages